FW4213 Weather Reports


Display with metric or nautical units.
time (UTC)temp
F
wind
direction
speed
MPH
gust
MPH
rain 1hr
in
rain 24hr
in
rain mn
in
humidity
%
barometer
mb
20260503031535 63 67 0.0 2.0 0.00 0.00 0.00 76 1013.7
20260503024609 65 60 2.0 4.0 0.00 0.00 0.00 71 1013.2
20260503021535 69 3 1.0 3.0 0.00 0.00 0.00 65 1012.7
20260503020144 70 346 0.0 3.0 0.00 0.00 0.00 64 1012.6
20260503013036 73 26 0.0 2.0 0.00 0.00 0.00 63 1012.6
20260503011534 76 45 0.0 0.0 0.00 0.00 0.00 60 1012.6
20260503010032 76 45 0.0 3.0 0.00 0.00 0.00 55 1012.6
20260503004643 76 23 0.0 3.0 0.00 0.00 0.00 53 1012.6
20260503003143 76 10 1.0 4.0 0.00 0.00 0.00 53 1012.6
20260503001536 76 359 0.0 3.0 0.00 0.00 0.00 53 1012.6
20260503000033 75 353 2.0 5.0 0.00 0.00 0.00 54 1012.8
20260502234642 76 332 1.0 4.0 0.00 0.00 0.00 56 1013.0
20260502233111 76 331 1.0 3.0 0.00 0.00 0.00 54 1013.2
20260502230037 75 338 1.0 3.0 0.00 0.00 0.00 53 1013.5
20260502224608 75 299 0.0 2.0 0.00 0.00 0.00 53 1013.7
20260502220033 78 338 2.0 5.0 0.00 0.00 0.00 50 1014.3
20260502214537 75 323 1.0 5.0 0.00 0.00 0.00 54 1014.6
20260502210034 75 279 0.0 2.0 0.00 0.00 0.00 54 1015.1
20260502204535 74 312 1.0 3.0 0.00 0.00 0.00 55 1015.3
20260502203036 67 187 1.0 3.0 0.00 0.00 0.00 67 1015.7
20260502200028 65 329 2.0 4.0 0.00 0.00 0.00 68 1015.9
20260502194532 65 344 2.0 5.0 0.00 0.00 0.00 68 1016.3
20260502193141 64 2 3.0 5.0 0.00 0.00 0.00 71 1016.7
20260502191534 64 345 3.0 7.0 0.00 0.00 0.00 71 1017.0
20260502190029 65 347 3.0 7.0 0.00 0.00 0.00 68 1017.0
20260502184532 64 349 2.0 7.0 0.00 0.00 0.00 71 1017.2
20260502183141 61 340 2.0 6.0 0.00 0.00 0.00 74 1017.3
20260502181530 60 331 2.0 7.0 0.00 0.00 0.00 76 1017.2
20260502163030 55 344 0.0 3.0 0.00 0.00 0.00 85 1017.9
20260502161531 55 325 2.0 6.0 0.00 0.00 0.00 84 1017.9
20260502151553 53 246 0.0 3.0 0.00 0.00 0.00 87 1017.5
20260502121529 53 327 1.0 5.0 0.00 0.00 0.00 84 1016.0
20260502113036 55 325 3.0 7.0 0.00 0.00 0.00 82 1015.9
20260502110047 53 116 4.0 9.0 0.00 0.00 0.00 86 1016.1
20260502103035 54 84 1.0 3.0 0.00 0.00 0.00 82 1016.7
20260502091532 54 314 0.0 4.0 0.00 0.00 0.00 83 1016.9
20260502070030 59 202 0.0 5.0 0.00 0.00 0.00 70 1016.7
20260502063034 59 349 1.0 4.0 0.00 0.00 0.00 71 1016.6
20260502060036 62 18 0.0 3.0 0.00 0.00 0.00 65 1016.5
20260502054536 61 334 1.0 5.0 0.00 0.00 0.00 67 1016.3
20260502053030 61 22 2.0 5.0 0.00 0.00 0.00 68 1016.2
20260502044645 62 174 0.0 4.0 0.00 0.00 0.00 65 1016.0
20260502041532 65 241 1.0 7.0 0.00 0.00 0.00 60 1015.5
20260502040036 65 322 3.0 8.0 0.00 0.00 0.00 62 1015.0